SHENZHOU 14 (52797 NORAD) Tracking and Keplerian Element Data

This shows tracking and keplerian element data for the satellite.

Feedback or suggestion? Click here.




ElementValue
Catalog52797
NameSHENZHOU 14
Epoch Orbit6856
Epoch Day192.44657407
Epoch Year2022
RAAN71.2808
Inclination41.4729
Eccentricity0.0003574
Argument of Perigee300.4424
Mean Anonmoly68.7582
Mean Motion15.61954651
Decay Rate0.00027843
L11 52797U 22060A 22192.44657407 .00027843 00000+0 31311-3 0 9998
L22 52797 41.4729 71.2808 0003574 300.4424 68.7582 15.61954651 68565

Live tracking and technical data element details for SHENZHOU 14 (NORAD 52797). SHENZHOU 14 can be tracked NOW for your location showing map with azimuth and elevation plus other details from your city location.

Track the satellite on the map from your city or location and see movement details for azimuth, elevation, latitude, longitude, range, height, and movement on the map or in text.







IsCatalogInMostPopularTable: catalog: 52797, numindb: 11
Update: records affected: 1



GetName: 52797 SHENZHOU 14

Hit Count: updated at: Sat, 13 Aug 2022 23:38:49 GMT